Flag for China Weather past 2 weeks in Kashgar, Xinjiang, China

Now
90 °F

Scattered clouds.


Feels Like: 86 °F
Forecast: 74 / 91 °F
Wind: 6 mph from South

Location: Kashi Airport

Current Time: Jul 29, 2015 at 9:56:37 PM

Latest Report: Jul 29, 2015 at 9:00 PM


Visibility: N/A

Pressure: 29.68 "Hg (25.66 "Hg at 1298m altitude)

Humidity: 22%

Dew point: 46 °F

Location of KashgarLocation

Historic Weather in Kashgar — Graph

°F

Kashgar temperature yesterday

Maximum temperature yesterday: 93 °F (at 4:00 PM)
Minimum temperature yesterday: 77 °F (at 9:00 AM)
Average temperature yesterday: 85 °F

Past Weeks' High & Low Weather Summary

 TemperatureHumidityPressure
High102 °F (Jul 18, 5:00 PM)78% (Jul 29, 3:00 AM)29.98 "Hg (Jul 29, 3:00 AM)
Low70 °F (Jul 29, 3:00 AM)6% (Jul 18, 8:00 PM)29.62 "Hg (Jul 18, 7:00 PM)
Average90 °F19%29.78 "Hg
* Reported Jul 14 8:00 PM — Jul 29 8:00 PM, Kashgar, Weather by CustomWeather, © 2015

Note: Actual official high and low records may vary slightly from our data, if they occured in-between our weather recording intervals... More about our weather records

Advertising

Kashgar weather history for previous 24 hours

 ConditionsComfort  
Time TempWeatherWind HumidityBarometerVisibility
8:00 PM
Wed, Jul 29
90 °FSunny.8 mph27%29.65 "Hg10 mi
7:00 PM91 °FSunny.6 mph23%29.65 "Hg10 mi
6:00 PM91 °FSunny.8 mph23%29.65 "Hg10 mi
5:00 PM90 °FSunny.8 mph29%29.65 "Hg10 mi
4:00 PM90 °FSunny.3 mph20%29.68 "Hg10 mi
3:00 PM88 °FPassing clouds.13 mph21%29.68 "HgN/A
2:00 PM81 °FSunny.10 mph51%29.71 "Hg10 mi
1:00 PM77 °FScattered clouds.13 mph54%29.74 "HgN/A
12:00 PM73 °FScattered clouds.15 mph61%29.77 "HgN/A
11:00 AM73 °FPartly sunny.8 mph57%29.77 "HgN/A
10:00 AM72 °FSprinkles. Partly sunny.13 mph61%29.74 "HgN/A
9:00 AM73 °FSprinkles. Partly sunny.15 mph53%29.74 "HgN/A
8:00 AM73 °FPartly sunny.17 mph53%29.74 "HgN/A
7:00 AM73 °FLight rain. Passing clouds.17 mph53%29.71 "HgN/A
6:00 AM73 °FLight rain. Passing clouds.13 mph65%29.71 "Hg4 mi
5:00 AM72 °FSprinkles. Passing clouds.13 mph73%29.71 "Hg4 mi
4:00 AM73 °FSprinkles. Passing clouds.8 mph69%29.71 "Hg6 mi
3:00 AM70 °FSandstorm.13 mph78%29.74 "Hg2 mi
2:00 AM75 °FSandstorm.15 mph57%29.74 "HgN/A
1:00 AM77 °FWarm.17 mph51%29.71 "Hg6 mi
12:00 AM79 °FSprinkles. Sandstorm.20 mph51%29.71 "Hg4 mi
11:00 PM
Tue, Jul 28
81 °FPassing clouds.20 mph45%29.68 "Hg4 mi
10:00 PM88 °FPassing clouds.6 mph25%29.62 "Hg4 mi
9:00 PM90 °FPassing clouds.8 mph27%29.62 "Hg3 mi
Weather by CustomWeather, © 2015

See weather overviewHow to use our weather pages